Regional Weather Roundup
Issued by NWS

Home | Current Version | Previous Version | Text Only | Print | Product List | Glossary Off
Versions: 1 2 3 4 5 6 7 8 9 10 11 12 13 14 15 16 17 18 19 20 21 22 23 24 25 26 27 28 29 30 31 32 33 34 35 36 37 38 39 40 41 42 43 44 45 46 47 48 49 50

000
ASUS43 KDTX 241101
RWRMI
MICHIGAN HOURLY REGIONAL WEATHER ROUNDUP
NATIONAL WEATHER SERVICE DETROIT/PONTIAC MI
700 AM EDT SUN SEP 24 2017

NOTE: "FAIR" INDICATES FEW OR NO CLOUDS BELOW 12,000 FEET WITH NO
SIGNIFICANT WEATHER AND/OR OBSTRUCTION TO VISIBILITY.

MIZ047>049-052>055-059>063-066>070-074>076-081>083-241200-
SOUTHEAST LOWER MICHIGAN

CITY           SKY/WX    TMP DP  RH WIND       PRES   REMARKS
ADRIAN         CLEAR     60  57  89 N3        30.16R
ALMA           CLEAR     56  55  94 CALM      30.16R FOG
ANN ARBOR      CLEAR     57  57 100 CALM      30.16R
BAD AXE        CLEAR     60  58  92 CALM      30.16S FOG
CARO           CLEAR     58  57  95 CALM      30.15S FOG
DETROIT CITY   CLEAR     66  63  90 CALM      30.15R
DETROIT        PTCLDY    66  62  87 CALM      30.16R
FLINT          CLEAR     61  58  90 CALM      30.15S
GROSSE ILE     CLEAR     63  61  92 CALM      30.15R
HILLSDALE      PTCLDY    59  55  88 CALM      30.16S
HOWELL         CLEAR     63  59  87 CALM      30.16R

CITY           SKY/WX    TMP DP  RH WIND       PRES   REMARKS
JACKSON        CLEAR     62  58  86 CALM      30.16R
LAMBERTVILLE   CLEAR     63  60  92 CALM      30.15R FOG
LANSING        CLEAR     63  57  81 CALM      30.15S
LAPEER         FAIR      60  59  97 CALM      30.16S
MASON          CLEAR     65  57  76 CALM      30.15S
MONROE           N/A     63  61  93 CALM      30.14S FOG
MT. CLEMENS    CLEAR     64  64 100 CALM      30.14R
PONTIAC        PTCLDY    63  62  97 CALM      30.16R
PORT HOPE        N/A     71  63  75 CALM      30.14R
PORT HURON     FOG       59  59 100 CALM      30.16S VSB 1/2
TRI CITIES     CLEAR     66  61  84 CALM      30.16R
MIDLAND        FAIR      60  60 100 CALM      30.14S FOG
TROY           CLEAR     66  60  81 CALM      30.18R
SAGINAW HB     PTCLDY    61  59  94 CALM      30.14S
$$
MIZ043>046-050>051-056>058-064>065-071>073-077>080-241200-
SOUTHWEST LOWER MICHIGAN

CITY           SKY/WX    TMP DP  RH WIND       PRES   REMARKS
BATTLE CREEK   CLEAR     64  61  90 CALM      30.15R
BENTON HARBOR  CLEAR     66  60  81 SE3       30.11R
BIG RAPIDS     CLEAR     59  58  94 CALM      30.14S
COLDWATER      CLEAR     62  60  94 CALM      30.15S
FREMONT        FAIR      65  62  88 SE5       30.12S
HOLLAND        CLEAR     61  59  93 CALM      30.12S
GRAND RAPIDS   PTCLDY    63  60  90 SE6       30.13S
IONIA          FAIR      60  58  92 CALM      30.14R
KALAMAZOO      CLEAR     63  59  87 CALM      30.15R
LUDINGTON      CLEAR     62  61  97 CALM      30.10S FOG
MARSHALL       CLEAR     60  60  98 CALM      30.14S
MUSKEGON       PTCLDY    65  62  90 SE5       30.12S
SOUTH HAVEN    CLEAR     67  62  84 CALM      30.11S
$$
MIZ016>042-241200-
NORTHERN LOWER MICHIGAN

CITY           SKY/WX    TMP DP  RH WIND       PRES   REMARKS
ALPENA         CLEAR     62  62 100 CALM      30.13S
BELLAIRE       FOG       60  58  96 CALM      30.12R VSB 1
CADILLAC       CLEAR     58  55  89 CALM      30.15R
CHARLEVOIX     CLEAR     67  67 100 SE3       30.14S
FRANKFORT      CLEAR     64  64 100 CALM      30.10R
GAYLORD        CLOUDY    64  60  87 CALM      30.15S
GRAYLING       CLEAR     55  52  91 CALM      30.16R
HARBOR SPRINGS CLEAR     65  63  95 CALM      30.11S
HOUGHTON LAKE  CLEAR     60  58  92 E3        30.16S
MANISTEE       CLEAR     63  62  97 E5        30.10S
OSCODA         CLEAR     70  60  70 S3        30.13S
PELLSTON       CLEAR     57  56  96 CALM      30.12R FOG
ROGERS CITY    CLEAR     69  65  85 S3        30.13S
TRAVERSE CITY  PTCLDY    68  64  87 CALM      30.09R
$$
MIZ007>008-015-241200-
EASTERN UPPER MICHIGAN

CITY           SKY/WX    TMP DP  RH WIND       PRES   REMARKS
KINROSS        CLEAR     66  64  93 CALM      30.11R
MACKINAC ISLAN CLEAR     67  67  97 SW5       30.10S
NEWBERRY       PTCLDY    65  64  97 SW7       30.10R
S. S. MARIE    CLEAR     64  62  93 CALM      30.10S FOG
MUNISING         N/A     70  67  90 S8        30.05R
$$
MIZ004>006-011>014-085-241200-
CENTRAL UPPER MICHIGAN

CITY           SKY/WX    TMP DP  RH WIND       PRES   REMARKS
MANISTIQUE     CLEAR     65  59  81 S3        30.08S HAZE
ESCANABA       PTCLDY    60  60 100 CALM      30.07R FOG
MENOMINEE      CLEAR     64  63  96 CALM      30.07S FOG
SAWYER-GWINN   CLEAR     64  64 100 S3        30.08R
$$
MIZ001>003-009>011-084-241200-
WESTERN UPPER MICHIGAN

CITY           SKY/WX    TMP DP  RH WIND       PRES   REMARKS
IRON MOUNTAIN  CLEAR     63  61  93 CALM      30.06S FOG
HOUGHTON       PTCLDY    68  64  87 S6        30.00S
COPPER HARBOR    N/A     71  67  87 W6        29.98S
IRONWOOD       CLEAR     72  63  73 S9        30.01S
$$

ABBREVIATIONS USED IN REMARKS
   TC - TEMPERATURE IN CELSIUS
  WCI - WIND CHILL INDEX
   HX - HEAT INDEX
  VSB - VISIBILITY





USA.gov is the U.S. government's official web portal to all federal, state and local government web resources and services.